Time,TemperatureF,DewpointF,PressureIn,WindDirection,WindDirectionDegrees,WindSpeedMPH,WindSpeedGustMPH,Humidity,HourlyPrecipIn,Conditions,Clouds,dailyrainin,SolarRadiationWatts/m^2,SoftwareType,DateUTC
2013-05-08 00:00:00,58.8,50.0,29.89,SE,128,0.0,0.0,72,0.00,,,0.00,0,Custom,2013-05-08 05:00:00,
2013-05-08 00:05:00,58.5,50.0,29.89,SE,128,0.0,0.0,73,0.00,,,0.00,0,Custom,2013-05-08 05:05:00,
2013-05-08 00:10:00,57.7,49.0,29.89,SE,128,0.0,0.0,73,0.00,,,0.00,0,Custom,2013-05-08 05:10:00,
2013-05-08 00:15:00,57.1,49.0,29.88,SE,128,0.0,0.0,75,0.00,,,0.00,0,Custom,2013-05-08 05:15:00,
2013-05-08 00:20:00,56.6,49.0,29.88,SE,128,0.0,0.0,76,0.00,,,0.00,0,Custom,2013-05-08 05:20:00,
2013-05-08 00:25:00,56.3,49.0,29.88,SE,128,0.0,0.0,78,0.00,,,0.00,0,Custom,2013-05-08 05:25:00,
2013-05-08 00:30:00,56.5,50.0,29.89,SE,128,0.0,0.0,78,0.00,,,0.00,0,Custom,2013-05-08 05:30:00,
2013-05-08 00:35:00,56.4,49.0,29.89,SE,128,0.0,0.0,77,0.00,,,0.00,0,Custom,2013-05-08 05:35:00,
2013-05-08 00:40:00,56.5,50.0,29.89,SE,128,0.0,0.0,78,0.00,,,0.00,0,Custom,2013-05-08 05:40:00,
2013-05-08 00:45:00,56.6,49.0,29.88,SE,128,0.0,0.0,77,0.00,,,0.00,0,Custom,2013-05-08 05:45:00,
2013-05-08 00:50:00,56.9,50.0,29.89,SE,128,0.0,0.0,77,0.00,,,0.00,0,Custom,2013-05-08 05:50:00,
2013-05-08 00:55:00,56.4,49.0,29.88,SE,128,0.0,0.0,77,0.00,,,0.00,0,Custom,2013-05-08 05:55:00,
2013-05-08 01:00:00,56.1,49.0,29.89,SE,128,0.0,0.0,78,0.00,,,0.00,0,Custom,2013-05-08 06:00:00,
2013-05-08 01:05:00,55.8,49.0,29.88,SE,128,0.0,0.0,78,0.00,,,0.00,0,Custom,2013-05-08 06:05:00,
2013-05-08 01:10:00,55.8,49.0,29.89,SE,128,0.0,0.0,79,0.00,,,0.00,0,Custom,2013-05-08 06:10:00,
2013-05-08 01:15:00,55.7,49.0,29.88,SE,128,0.0,0.0,79,0.00,,,0.00,0,Custom,2013-05-08 06:15:00,
2013-05-08 01:20:00,55.7,50.0,29.89,SE,128,0.0,0.0,80,0.00,,,0.00,0,Custom,2013-05-08 06:20:00,
2013-05-08 01:25:00,56.2,50.0,29.88,SE,128,0.0,0.0,79,0.00,,,0.00,0,Custom,2013-05-08 06:25:00,
2013-05-08 01:30:00,56.8,50.0,29.88,SE,128,0.0,0.0,79,0.00,,,0.00,0,Custom,2013-05-08 06:30:00,
2013-05-08 01:35:00,57.1,50.0,29.88,SE,128,0.0,0.0,78,0.00,,,0.00,0,Custom,2013-05-08 06:35:00,
2013-05-08 01:40:00,57.0,50.0,29.88,SE,128,0.0,0.0,78,0.00,,,0.00,0,Custom,2013-05-08 06:40:00,
2013-05-08 01:45:00,56.6,50.0,29.88,SE,128,0.0,0.0,78,0.00,,,0.00,0,Custom,2013-05-08 06:45:00,
2013-05-08 01:50:00,56.2,50.0,29.88,SE,128,0.0,0.0,79,0.00,,,0.00,0,Custom,2013-05-08 06:50:00,
2013-05-08 01:55:00,55.8,49.0,29.88,SE,128,0.0,0.0,79,0.00,,,0.00,0,Custom,2013-05-08 06:55:00,
2013-05-08 02:00:00,55.5,50.0,29.88,SE,128,0.0,0.0,81,0.00,,,0.00,0,Custom,2013-05-08 07:00:00,
2013-05-08 02:05:00,55.5,50.0,29.88,SE,128,0.0,0.0,81,0.00,,,0.00,0,Custom,2013-05-08 07:05:00,
2013-05-08 02:10:00,55.5,50.0,29.88,SE,128,0.0,0.0,82,0.00,,,0.00,0,Custom,2013-05-08 07:10:00,
2013-05-08 02:15:00,54.9,50.0,29.88,SE,128,0.0,0.0,82,0.00,,,0.00,0,Custom,2013-05-08 07:15:00,
2013-05-08 02:20:00,55.2,50.0,29.88,SE,128,0.0,0.0,83,0.00,,,0.00,0,Custom,2013-05-08 07:20:00,
2013-05-08 02:25:00,55.2,50.0,29.88,SE,128,0.0,0.0,83,0.00,,,0.00,0,Custom,2013-05-08 07:25:00,
2013-05-08 02:30:00,55.3,50.0,29.88,SE,128,0.0,0.0,83,0.00,,,0.00,0,Custom,2013-05-08 07:30:00,
2013-05-08 02:35:00,55.3,50.0,29.87,SE,128,0.0,0.0,83,0.00,,,0.00,0,Custom,2013-05-08 07:35:00,
2013-05-08 02:40:00,55.2,50.0,29.88,SE,128,0.0,0.0,83,0.00,,,0.00,0,Custom,2013-05-08 07:40:00,
2013-05-08 02:45:00,55.0,50.0,29.87,SE,128,0.0,0.0,83,0.00,,,0.00,0,Custom,2013-05-08 07:45:00,
2013-05-08 02:50:00,55.1,50.0,29.87,SE,128,0.0,0.0,84,0.00,,,0.00,0,Custom,2013-05-08 07:50:00,
2013-05-08 02:55:00,55.2,50.0,29.88,SE,128,0.0,0.0,83,0.00,,,0.00,0,Custom,2013-05-08 07:55:00,
2013-05-08 03:00:00,55.5,51.0,29.87,SE,128,0.0,0.0,83,0.00,,,0.00,0,Custom,2013-05-08 08:00:00,
2013-05-08 03:05:00,55.5,51.0,29.88,SE,128,0.0,0.0,83,0.00,,,0.00,0,Custom,2013-05-08 08:05:00,
2013-05-08 03:10:00,55.6,51.0,29.88,SE,128,0.0,0.0,83,0.00,,,0.00,0,Custom,2013-05-08 08:10:00,
2013-05-08 03:15:00,55.8,51.0,29.87,SE,128,0.0,0.0,83,0.00,,,0.00,0,Custom,2013-05-08 08:15:00,
2013-05-08 03:20:00,55.7,51.0,29.87,SE,128,0.0,0.0,84,0.00,,,0.00,0,Custom,2013-05-08 08:20:00,
2013-05-08 03:25:00,55.9,51.0,29.87,SE,128,0.0,0.0,84,0.00,,,0.00,0,Custom,2013-05-08 08:25:00,
2013-05-08 03:30:00,56.1,51.0,29.88,SE,128,0.0,0.0,84,0.00,,,0.00,0,Custom,2013-05-08 08:30:00,
2013-05-08 03:35:00,56.0,51.0,29.88,SE,128,0.0,0.0,84,0.00,,,0.00,0,Custom,2013-05-08 08:35:00,
2013-05-08 03:40:00,56.5,52.0,29.89,SE,128,0.0,0.0,84,0.00,,,0.00,0,Custom,2013-05-08 08:40:00,
2013-05-08 03:45:00,56.8,52.0,29.89,SE,128,0.0,0.0,84,0.00,,,0.00,0,Custom,2013-05-08 08:45:00,
2013-05-08 03:50:00,56.8,52.0,29.89,SE,128,0.0,0.0,84,0.00,,,0.00,0,Custom,2013-05-08 08:50:00,
2013-05-08 03:55:00,56.8,52.0,29.89,SE,128,0.0,0.0,83,0.00,,,0.00,0,Custom,2013-05-08 08:55:00,
2013-05-08 04:00:00,56.9,52.0,29.89,SE,128,0.0,0.0,83,0.00,,,0.00,0,Custom,2013-05-08 09:00:00,
2013-05-08 04:05:00,56.9,52.0,29.89,SE,128,0.0,0.0,83,0.00,,,0.00,0,Custom,2013-05-08 09:05:00,
2013-05-08 04:10:00,56.9,52.0,29.89,SE,128,0.0,0.0,83,0.00,,,0.00,0,Custom,2013-05-08 09:10:00,
2013-05-08 04:15:00,56.6,52.0,29.89,SE,128,0.0,0.0,84,0.00,,,0.00,0,Custom,2013-05-08 09:15:00,
2013-05-08 04:20:00,56.4,52.0,29.89,SE,128,0.0,0.0,85,0.00,,,0.00,0,Custom,2013-05-08 09:20:00,
2013-05-08 04:25:00,56.1,52.0,29.89,SE,128,0.0,0.0,86,0.00,,,0.00,0,Custom,2013-05-08 09:25:00,
2013-05-08 04:30:00,55.9,52.0,29.89,SE,128,0.0,0.0,86,0.00,,,0.00,0,Custom,2013-05-08 09:30:00,
2013-05-08 04:35:00,55.8,52.0,29.89,SE,128,0.0,0.0,86,0.00,,,0.00,0,Custom,2013-05-08 09:35:00,
2013-05-08 04:40:00,56.0,52.0,29.88,SE,128,0.0,1.0,85,0.00,,,0.00,0,Custom,2013-05-08 09:40:00,
2013-05-08 04:45:00,56.4,52.0,29.88,SE,128,0.0,1.0,85,0.00,,,0.00,0,Custom,2013-05-08 09:45:00,
2013-05-08 04:50:00,56.6,52.0,29.88,SE,128,0.0,0.0,84,0.00,,,0.00,0,Custom,2013-05-08 09:50:00,
2013-05-08 04:55:00,56.3,52.0,29.88,SE,128,0.0,0.0,85,0.00,,,0.00,0,Custom,2013-05-08 09:55:00,
2013-05-08 05:00:00,56.2,52.0,29.89,SE,128,0.0,0.0,86,0.00,,,0.00,0,Custom,2013-05-08 10:00:00,
2013-05-08 05:05:00,56.1,52.0,29.89,SE,128,0.0,0.0,86,0.00,,,0.00,0,Custom,2013-05-08 10:05:00,
2013-05-08 05:10:00,56.1,52.0,29.89,SE,128,0.0,0.0,87,0.00,,,0.00,0,Custom,2013-05-08 10:10:00,
2013-05-08 05:15:00,56.2,52.0,29.89,SE,128,0.0,0.0,87,0.00,,,0.00,0,Custom,2013-05-08 10:15:00,
2013-05-08 05:20:00,56.1,52.0,29.90,SE,128,1.0,0.0,86,0.00,,,0.00,0,Custom,2013-05-08 10:20:00,
2013-05-08 05:25:00,56.4,52.0,29.90,West,272,0.0,3.0,86,0.00,,,0.00,0,Custom,2013-05-08 10:25:00,
2013-05-08 05:30:00,57.5,53.0,29.90,West,272,0.0,1.0,84,0.00,,,0.00,0,Custom,2013-05-08 10:30:00,
2013-05-08 05:35:00,58.2,53.0,29.90,West,272,0.0,0.0,82,0.00,,,0.00,0,Custom,2013-05-08 10:35:00,
2013-05-08 05:40:00,58.5,53.0,29.91,West,272,0.0,2.0,81,0.00,,,0.00,0,Custom,2013-05-08 10:40:00,
2013-05-08 05:45:00,58.3,53.0,29.90,West,272,0.0,0.0,81,0.00,,,0.00,0,Custom,2013-05-08 10:45:00,
2013-05-08 05:50:00,58.0,52.0,29.91,West,272,0.0,0.0,81,0.00,,,0.00,0,Custom,2013-05-08 10:50:00,
2013-05-08 05:55:00,58.0,53.0,29.91,West,277,0.0,0.0,82,0.00,,,0.00,0,Custom,2013-05-08 10:55:00,
2013-05-08 06:00:00,57.6,52.0,29.90,East,92,0.0,0.0,82,0.00,,,0.00,0,Custom,2013-05-08 11:00:00,
2013-05-08 06:05:00,57.3,52.0,29.90,SSW,203,0.0,0.0,82,0.00,,,0.00,0,Custom,2013-05-08 11:05:00,
2013-05-08 06:10:00,57.2,52.0,29.90,SSW,203,0.0,0.0,83,0.00,,,0.00,7.8,Custom,2013-05-08 11:10:00,
2013-05-08 06:15:00,57.1,52.0,29.90,SSW,203,0.0,0.0,83,0.00,,,0.00,0,Custom,2013-05-08 11:15:00,
2013-05-08 06:20:00,57.0,52.0,29.90,SSW,203,0.0,0.0,84,0.00,,,0.00,0,Custom,2013-05-08 11:20:00,
2013-05-08 06:25:00,56.9,52.0,29.90,SSW,204,0.0,0.0,84,0.00,,,0.00,0,Custom,2013-05-08 11:25:00,
2013-05-08 06:30:00,57.0,52.0,29.90,SSW,203,0.0,0.0,84,0.00,,,0.00,8.19,Custom,2013-05-08 11:30:00,
2013-05-08 06:35:00,57.2,53.0,29.90,SSW,203,0.0,0.0,84,0.00,,,0.00,0,Custom,2013-05-08 11:35:00,
2013-05-08 06:40:00,57.2,53.0,29.90,SSW,203,0.0,0.0,85,0.00,,,0.00,7.8,Custom,2013-05-08 11:40:00,
2013-05-08 06:45:00,57.1,53.0,29.90,SSW,203,0.0,0.0,85,0.00,,,0.00,0,Custom,2013-05-08 11:45:00,
2013-05-08 06:50:00,57.0,53.0,29.91,SSW,203,0.0,0.0,86,0.00,,,0.00,0,Custom,2013-05-08 11:50:00,
2013-05-08 06:55:00,56.8,53.0,29.91,SSW,203,0.0,0.0,87,0.00,,,0.00,7.8,Custom,2013-05-08 11:55:00,
2013-05-08 07:00:00,56.7,53.0,29.91,SSW,197,0.0,0.0,87,0.00,,,0.00,8.58,Custom,2013-05-08 12:00:00,
2013-05-08 07:05:00,56.7,53.0,29.91,SSW,197,0.0,0.0,87,0.00,,,0.00,11.31,Custom,2013-05-08 12:05:00,
2013-05-08 07:10:00,56.7,53.0,29.91,SSW,197,0.0,0.0,88,0.00,,,0.00,17.16,Custom,2013-05-08 12:10:00,
2013-05-08 07:15:00,56.9,54.0,29.90,SSW,197,0.0,0.0,88,0.00,,,0.00,19.5,Custom,2013-05-08 12:15:00,
2013-05-08 07:20:00,56.9,53.0,29.90,SSW,197,0.0,0.0,88,0.01,,,0.01,19.5,Custom,2013-05-08 12:20:00,
2013-05-08 07:25:00,56.9,53.0,29.90,SSW,197,0.0,0.0,88,0.01,,,0.01,26.52,Custom,2013-05-08 12:25:00,
2013-05-08 07:30:00,57.0,54.0,29.90,SSW,197,0.0,0.0,89,0.01,,,0.01,35.1,Custom,2013-05-08 12:30:00,
2013-05-08 07:35:00,57.2,54.0,29.90,SSW,197,0.0,0.0,89,0.01,,,0.01,34.32,Custom,2013-05-08 12:35:00,
2013-05-08 07:40:00,57.2,54.0,29.90,SSW,197,0.0,0.0,88,0.01,,,0.01,31.59,Custom,2013-05-08 12:40:00,
2013-05-08 07:45:00,57.3,54.0,29.90,SSW,197,0.0,0.0,89,0.01,,,0.01,31.59,Custom,2013-05-08 12:45:00,
2013-05-08 07:50:00,57.5,54.0,29.90,SSW,197,0.0,0.0,88,0.01,,,0.01,32.76,Custom,2013-05-08 12:50:00,
2013-05-08 07:55:00,57.6,54.0,29.90,SSW,197,0.0,0.0,89,0.01,,,0.01,37.44,Custom,2013-05-08 12:55:00,
2013-05-08 08:01:00,57.7,54.0,29.90,SSW,197,0.0,0.0,89,0.01,,,0.01,41.73,Custom,2013-05-08 13:01:00,
2013-05-08 08:06:00,57.9,54.0,29.90,SSW,197,0.0,0.0,88,0.01,,,0.01,41.34,Custom,2013-05-08 13:06:00,
2013-05-08 08:11:00,58.1,55.0,29.90,SSW,197,0.0,0.0,88,0.01,,,0.01,45.63,Custom,2013-05-08 13:11:00,
2013-05-08 08:16:00,58.4,55.0,29.90,SSW,197,0.0,0.0,87,0.01,,,0.01,54.6,Custom,2013-05-08 13:16:00,
2013-05-08 08:21:00,58.7,55.0,29.90,SSW,197,0.0,0.0,87,0.00,,,0.01,64.74,Custom,2013-05-08 13:21:00,
2013-05-08 08:26:00,59.0,55.0,29.91,SSW,197,0.0,0.0,87,0.00,,,0.01,79.17,Custom,2013-05-08 13:26:00,
2013-05-08 08:31:00,59.3,55.0,29.91,SSW,197,0.0,0.0,86,0.00,,,0.01,76.05,Custom,2013-05-08 13:31:00,
2013-05-08 08:36:00,59.5,55.0,29.91,SSW,196,0.0,0.0,85,0.00,,,0.01,81.12,Custom,2013-05-08 13:36:00,
2013-05-08 08:41:00,59.9,55.0,29.91,SSW,196,0.0,0.0,84,0.00,,,0.01,92.04,Custom,2013-05-08 13:41:00,
2013-05-08 08:46:00,60.3,55.0,29.91,SSW,196,0.0,0.0,83,0.00,,,0.01,90.48,Custom,2013-05-08 13:46:00,
2013-05-08 08:51:00,60.6,56.0,29.91,SSW,196,0.0,0.0,84,0.00,,,0.01,89.31,Custom,2013-05-08 13:51:00,
2013-05-08 08:56:00,60.8,56.0,29.91,SSW,197,0.0,0.0,83,0.00,,,0.01,97.5,Custom,2013-05-08 13:56:00,
2013-05-08 09:01:00,61.0,56.0,29.91,SSW,196,0.0,0.0,83,0.00,,,0.01,111.93,Custom,2013-05-08 14:01:00,
2013-05-08 09:06:00,61.4,56.0,29.91,SSW,197,0.0,0.0,83,0.00,,,0.01,137.67,Custom,2013-05-08 14:06:00,
2013-05-08 09:11:00,61.9,57.0,29.91,SSW,197,0.0,0.0,83,0.00,,,0.01,171.21,Custom,2013-05-08 14:11:00,
2013-05-08 09:16:00,62.1,57.0,29.91,SSW,196,0.0,0.0,82,0.00,,,0.01,190.32,Custom,2013-05-08 14:16:00,
2013-05-08 09:21:00,62.8,57.0,29.91,SSW,196,0.0,1.0,81,0.00,,,0.01,195,Custom,2013-05-08 14:21:00,
2013-05-08 09:26:00,63.3,57.0,29.91,SSW,196,1.0,1.0,81,0.00,,,0.01,204.36,Custom,2013-05-08 14:26:00,
2013-05-08 09:31:00,64.0,58.0,29.91,SSW,197,0.0,1.0,80,0.00,,,0.01,207.87,Custom,2013-05-08 14:31:00,
2013-05-08 09:36:00,64.3,57.0,29.91,SSW,196,2.0,2.0,78,0.00,,,0.01,167.7,Custom,2013-05-08 14:36:00,
2013-05-08 09:41:00,64.3,57.0,29.91,SE,142,0.0,1.0,77,0.00,,,0.01,131.82,Custom,2013-05-08 14:41:00,
2013-05-08 09:46:00,64.1,57.0,29.91,SE,141,0.0,3.0,78,0.00,,,0.01,132.99,Custom,2013-05-08 14:46:00,
2013-05-08 09:51:00,64.3,57.0,29.91,SE,144,0.0,2.0,77,0.00,,,0.01,148.98,Custom,2013-05-08 14:51:00,
2013-05-08 09:56:00,64.4,56.0,29.91,SSE,165,4.0,5.0,76,0.00,,,0.01,196.17,Custom,2013-05-08 14:56:00,
2013-05-08 10:01:00,65.0,57.0,29.91,SSE,165,3.0,4.0,76,0.00,,,0.01,202.41,Custom,2013-05-08 15:01:00,
2013-05-08 10:06:00,65.2,57.0,29.91,SSE,167,0.0,4.0,75,0.00,,,0.01,211.38,Custom,2013-05-08 15:06:00,
2013-05-08 10:11:00,65.3,57.0,29.91,South,188,2.0,7.0,74,0.00,,,0.01,192.66,Custom,2013-05-08 15:11:00,
2013-05-08 10:16:00,65.3,57.0,29.91,South,186,6.0,7.0,74,0.00,,,0.01,198.9,Custom,2013-05-08 15:16:00,
2013-05-08 10:21:00,65.3,57.0,29.91,South,179,5.0,6.0,74,0.00,,,0.01,187.98,Custom,2013-05-08 15:21:00,
2013-05-08 10:26:00,65.0,56.0,29.91,South,190,0.0,8.0,73,0.00,,,0.01,175.11,Custom,2013-05-08 15:26:00,
2013-05-08 10:31:00,65.1,56.0,29.91,SSE,161,1.0,7.0,73,0.00,,,0.01,169.65,Custom,2013-05-08 15:31:00,
2013-05-08 10:36:00,65.1,56.0,29.91,South,172,1.0,5.0,73,0.00,,,0.01,166.53,Custom,2013-05-08 15:36:00,
2013-05-08 10:41:00,65.1,56.0,29.91,South,189,3.0,6.0,72,0.00,,,0.01,163.41,Custom,2013-05-08 15:41:00,
2013-05-08 10:46:00,65.1,56.0,29.91,South,181,3.0,6.0,73,0.00,,,0.01,165.36,Custom,2013-05-08 15:46:00,
2013-05-08 10:51:00,65.1,57.0,29.91,South,184,4.0,7.0,74,0.00,,,0.01,193.83,Custom,2013-05-08 15:51:00,
2013-05-08 10:56:00,65.3,57.0,29.91,SSE,150,4.0,9.0,74,0.00,,,0.01,246.48,Custom,2013-05-08 15:56:00,
2013-05-08 11:01:00,66.0,57.0,29.91,South,186,0.0,6.0,73,0.00,,,0.01,258.18,Custom,2013-05-08 16:01:00,
2013-05-08 11:06:00,66.4,57.0,29.91,South,177,2.0,7.0,72,0.00,,,0.01,235.17,Custom,2013-05-08 16:06:00,
2013-05-08 11:11:00,66.7,58.0,29.91,West,268,4.0,5.0,74,0.00,,,0.01,220.74,Custom,2013-05-08 16:11:00,
2013-05-08 11:16:00,66.1,58.0,29.91,South,188,4.0,7.0,74,0.00,,,0.01,159.51,Custom,2013-05-08 16:16:00,
2013-05-08 11:21:00,65.7,57.0,29.91,South,181,3.0,9.0,74,0.00,,,0.01,143.13,Custom,2013-05-08 16:21:00,
2013-05-08 11:26:00,65.3,58.0,29.91,South,183,2.0,6.0,77,0.00,,,0.01,131.43,Custom,2013-05-08 16:26:00,
2013-05-08 11:31:00,64.8,57.0,29.91,SSW,193,0.0,10.0,77,0.00,,,0.01,102.96,Custom,2013-05-08 16:31:00,
2013-05-08 11:36:00,64.5,57.0,29.90,SSW,205,0.0,11.0,78,0.00,,,0.01,108.42,Custom,2013-05-08 16:36:00,
2013-05-08 11:41:00,64.4,57.0,29.90,South,180,4.0,12.0,77,0.00,,,0.01,114.27,Custom,2013-05-08 16:41:00,
2013-05-08 11:46:00,64.6,57.0,29.89,SSW,201,6.0,9.0,75,0.00,,,0.01,140.4,Custom,2013-05-08 16:46:00,
2013-05-08 11:51:00,65.1,57.0,29.90,South,181,5.0,16.0,76,0.00,,,0.01,163.41,Custom,2013-05-08 16:51:00,
2013-05-08 11:56:00,65.6,57.0,29.89,South,190,2.0,8.0,75,0.00,,,0.01,194.22,Custom,2013-05-08 16:56:00,
2013-05-08 12:01:00,65.7,57.0,29.89,SSW,192,12.0,12.0,73,0.00,,,0.01,270.27,Custom,2013-05-08 17:01:00,
2013-05-08 12:06:00,66.1,58.0,29.89,South,171,6.0,13.0,74,0.00,,,0.01,304.2,Custom,2013-05-08 17:06:00,
2013-05-08 12:11:00,66.4,58.0,29.89,SSE,159,9.0,12.0,74,0.00,,,0.01,386.1,Custom,2013-05-08 17:11:00,
2013-05-08 12:16:00,66.1,57.0,29.88,SSW,194,5.0,14.0,74,0.00,,,0.01,359.97,Custom,2013-05-08 17:16:00,
2013-05-08 12:21:00,66.4,58.0,29.87,South,182,5.0,13.0,75,0.00,,,0.01,392.34,Custom,2013-05-08 17:21:00,
2013-05-08 12:26:00,67.2,59.0,29.87,South,173,7.0,19.0,74,0.00,,,0.01,463.32,Custom,2013-05-08 17:26:00,
2013-05-08 12:31:00,66.5,57.0,29.87,SSW,194,4.0,16.0,71,0.00,,,0.01,342.42,Custom,2013-05-08 17:31:00,
2013-05-08 12:36:00,67.5,58.0,29.85,South,184,8.0,12.0,71,0.00,,,0.01,830.7,Custom,2013-05-08 17:36:00,
2013-05-08 12:41:00,67.4,57.0,29.86,South,187,5.0,15.0,68,0.00,,,0.01,519.48,Custom,2013-05-08 17:41:00,
2013-05-08 12:46:00,67.1,56.0,29.85,South,189,11.0,13.0,69,0.00,,,0.01,634.92,Custom,2013-05-08 17:46:00,
2013-05-08 12:51:00,69.3,58.0,29.85,East,97,8.0,12.0,67,0.00,,,0.01,749.19,Custom,2013-05-08 17:51:00,
2013-05-08 12:56:00,68.8,57.0,29.86,SSW,199,4.0,21.0,67,0.00,,,0.01,769.47,Custom,2013-05-08 17:56:00,
2013-05-08 13:01:00,69.5,58.0,29.85,South,178,0.0,11.0,67,0.00,,,0.01,701.61,Custom,2013-05-08 18:01:00,
2013-05-08 13:06:00,69.8,57.0,29.86,SSE,158,4.0,11.0,64,0.00,,,0.01,867.36,Custom,2013-05-08 18:06:00,
2013-05-08 13:11:00,70.5,57.0,29.85,SSW,202,5.0,13.0,63,0.00,,,0.01,911.82,Custom,2013-05-08 18:11:00,
2013-05-08 13:16:00,71.7,59.0,29.86,SSW,211,8.0,13.0,63,0.00,,,0.01,936,Custom,2013-05-08 18:16:00,
2013-05-08 13:21:00,72.1,58.0,29.86,South,185,9.0,14.0,61,0.00,,,0.01,926.25,Custom,2013-05-08 18:21:00,
2013-05-08 13:26:00,72.8,57.0,29.86,SW,214,12.0,12.0,58,0.00,,,0.01,976.56,Custom,2013-05-08 18:26:00,
2013-05-08 13:31:00,73.4,59.0,29.86,SSE,148,8.0,18.0,61,0.00,,,0.01,963.69,Custom,2013-05-08 18:31:00,
2013-05-08 13:36:00,71.4,56.0,29.85,SSW,202,8.0,11.0,58,0.00,,,0.01,584.22,Custom,2013-05-08 18:36:00,
2013-05-08 13:41:00,71.3,56.0,29.87,SSW,195,7.0,12.0,59,0.00,,,0.01,485.55,Custom,2013-05-08 18:41:00,
2013-05-08 13:46:00,71.2,57.0,29.87,South,184,3.0,13.0,61,0.00,,,0.01,495.69,Custom,2013-05-08 18:46:00,
2013-05-08 13:51:00,71.0,57.0,29.87,SSW,192,3.0,14.0,61,0.00,,,0.01,565.11,Custom,2013-05-08 18:51:00,
2013-05-08 13:56:00,71.0,57.0,29.86,SSW,199,5.0,10.0,61,0.00,,,0.01,555.75,Custom,2013-05-08 18:56:00,
2013-05-08 14:01:00,71.9,57.0,29.86,SSW,192,7.0,10.0,60,0.00,,,0.01,791.31,Custom,2013-05-08 19:01:00,
2013-05-08 14:06:00,73.0,58.0,29.86,SSE,168,3.0,11.0,60,0.00,,,0.01,818.22,Custom,2013-05-08 19:06:00,
2013-05-08 14:11:00,73.6,58.0,29.86,South,172,1.0,9.0,58,0.00,,,0.01,758.55,Custom,2013-05-08 19:11:00,
2013-05-08 14:16:00,73.7,58.0,29.86,South,180,9.0,15.0,59,0.00,,,0.01,778.83,Custom,2013-05-08 19:16:00,
2013-05-08 14:21:00,71.8,57.0,29.86,SSW,204,9.0,14.0,59,0.00,,,0.01,456.69,Custom,2013-05-08 19:21:00,
2013-05-08 14:26:00,73.6,59.0,29.86,SSE,150,7.0,14.0,60,0.00,,,0.01,764.4,Custom,2013-05-08 19:26:00,
2013-05-08 14:31:00,73.7,59.0,29.87,SSW,193,6.0,10.0,60,0.00,,,0.01,429.39,Custom,2013-05-08 19:31:00,
2013-05-08 14:36:00,73.4,59.0,29.87,SSW,193,1.0,10.0,61,0.00,,,0.01,751.14,Custom,2013-05-08 19:36:00,
2013-05-08 14:41:00,73.3,59.0,29.87,East,88,3.0,13.0,61,0.00,,,0.01,865.02,Custom,2013-05-08 19:41:00,
2013-05-08 14:46:00,74.1,59.0,29.87,South,177,10.0,10.0,60,0.00,,,0.01,886.47,Custom,2013-05-08 19:46:00,
2013-05-08 14:51:00,74.4,60.0,29.86,South,172,4.0,11.0,60,0.00,,,0.01,821.34,Custom,2013-05-08 19:51:00,
2013-05-08 14:56:00,74.2,57.0,29.86,South,184,1.0,10.0,56,0.00,,,0.01,743.34,Custom,2013-05-08 19:56:00,
2013-05-08 15:01:00,74.7,58.0,29.86,South,172,6.0,12.0,57,0.00,,,0.01,755.04,Custom,2013-05-08 20:01:00,
2013-05-08 15:06:00,74.2,58.0,29.86,South,176,9.0,12.0,58,0.00,,,0.01,762.84,Custom,2013-05-08 20:06:00,
2013-05-08 15:11:00,74.8,60.0,29.86,SSE,168,0.0,12.0,60,0.00,,,0.01,727.74,Custom,2013-05-08 20:11:00,
2013-05-08 15:16:00,74.4,60.0,29.85,South,182,6.0,13.0,60,0.00,,,0.01,705.51,Custom,2013-05-08 20:16:00,
2013-05-08 15:21:00,74.8,60.0,29.85,South,191,4.0,11.0,60,0.00,,,0.01,764.4,Custom,2013-05-08 20:21:00,
2013-05-08 15:26:00,75.0,60.0,29.85,SSW,195,9.0,11.0,60,0.00,,,0.01,715.65,Custom,2013-05-08 20:26:00,
2013-05-08 15:31:00,75.2,60.0,29.85,SSW,194,6.0,11.0,58,0.00,,,0.01,648.57,Custom,2013-05-08 20:31:00,
2013-05-08 15:36:00,74.0,59.0,29.85,South,183,6.0,11.0,59,0.00,,,0.01,509.73,Custom,2013-05-08 20:36:00,
2013-05-08 15:41:00,73.9,59.0,29.85,SW,218,6.0,12.0,60,0.00,,,0.01,546.39,Custom,2013-05-08 20:41:00,
2013-05-08 15:46:00,74.5,60.0,29.85,SSW,199,5.0,8.0,61,0.00,,,0.01,517.53,Custom,2013-05-08 20:46:00,
2013-05-08 15:51:00,74.0,59.0,29.84,South,188,2.0,13.0,60,0.00,,,0.01,481.65,Custom,2013-05-08 20:51:00,
2013-05-08 15:56:00,74.1,60.0,29.85,South,172,0.0,7.0,60,0.00,,,0.01,412.23,Custom,2013-05-08 20:56:00,
2013-05-08 16:01:00,74.1,59.0,29.84,South,187,6.0,9.0,59,0.00,,,0.01,420.81,Custom,2013-05-08 21:01:00,
2013-05-08 16:06:00,74.0,59.0,29.83,South,187,7.0,11.0,60,0.00,,,0.01,473.85,Custom,2013-05-08 21:06:00,
2013-05-08 16:11:00,74.3,60.0,29.83,South,176,5.0,8.0,62,0.00,,,0.01,394.29,Custom,2013-05-08 21:11:00,
2013-05-08 16:16:00,73.9,60.0,29.83,South,186,12.0,12.0,61,0.00,,,0.01,403.26,Custom,2013-05-08 21:16:00,
2013-05-08 16:21:00,73.3,58.0,29.83,South,189,5.0,12.0,59,0.00,,,0.01,368.16,Custom,2013-05-08 21:21:00,
2013-05-08 16:26:00,74.1,60.0,29.82,South,180,4.0,9.0,62,0.00,,,0.01,790.92,Custom,2013-05-08 21:26:00,
2013-05-08 16:31:00,76.3,61.0,29.82,South,180,0.0,8.0,59,0.00,,,0.01,710.19,Custom,2013-05-08 21:31:00,
2013-05-08 16:36:00,76.3,59.0,29.82,South,189,9.0,9.0,56,0.00,,,0.01,640.77,Custom,2013-05-08 21:36:00,
2013-05-08 16:41:00,75.3,60.0,29.82,South,180,8.0,12.0,58,0.00,,,0.01,583.83,Custom,2013-05-08 21:41:00,
2013-05-08 16:46:00,75.2,60.0,29.82,SSE,148,0.0,16.0,58,0.00,,,0.01,548.34,Custom,2013-05-08 21:46:00,
2013-05-08 16:51:00,75.8,59.0,29.82,South,182,4.0,9.0,56,0.00,,,0.01,528.06,Custom,2013-05-08 21:51:00,
2013-05-08 16:56:00,75.5,59.0,29.82,SE,131,0.0,8.0,56,0.00,,,0.01,507.39,Custom,2013-05-08 21:56:00,
2013-05-08 17:01:00,76.2,59.0,29.82,East,97,6.0,8.0,56,0.00,,,0.01,489.84,Custom,2013-05-08 22:01:00,
2013-05-08 17:06:00,75.2,59.0,29.82,SSW,196,7.0,10.0,57,0.00,,,0.01,312.78,Custom,2013-05-08 22:06:00,
2013-05-08 17:11:00,75.2,60.0,29.82,SE,131,7.0,13.0,59,0.00,,,0.01,455.91,Custom,2013-05-08 22:11:00,
2013-05-08 17:16:00,74.5,59.0,29.82,SSE,162,6.0,9.0,58,0.00,,,0.01,437.97,Custom,2013-05-08 22:16:00,
2013-05-08 17:21:00,74.6,59.0,29.82,South,180,8.0,10.0,58,0.00,,,0.01,340.47,Custom,2013-05-08 22:21:00,
2013-05-08 17:26:00,73.8,59.0,29.82,South,184,0.0,12.0,60,0.00,,,0.01,217.62,Custom,2013-05-08 22:26:00,
2013-05-08 17:31:00,73.1,58.0,29.82,SSW,206,8.0,11.0,60,0.00,,,0.01,96.72,Custom,2013-05-08 22:31:00,
2013-05-08 17:36:00,72.7,59.0,29.82,South,182,0.0,13.0,62,0.00,,,0.01,110.37,Custom,2013-05-08 22:36:00,
2013-05-08 17:41:00,73.5,59.0,29.82,SSE,157,0.0,10.0,60,0.00,,,0.01,58.11,Custom,2013-05-08 22:41:00,
2013-05-08 17:46:00,73.6,59.0,29.82,South,171,3.0,7.0,61,0.00,,,0.01,131.43,Custom,2013-05-08 22:46:00,
2013-05-08 17:51:00,73.0,58.0,29.82,South,179,7.0,9.0,60,0.00,,,0.01,138.06,Custom,2013-05-08 22:51:00,
2013-05-08 17:56:00,72.9,59.0,29.82,South,169,0.0,11.0,62,0.00,,,0.01,109.2,Custom,2013-05-08 22:56:00,
2013-05-08 18:01:00,72.7,58.0,29.82,South,178,7.0,8.0,60,0.00,,,0.01,86.97,Custom,2013-05-08 23:01:00,
2013-05-08 18:06:00,72.4,58.0,29.82,SSW,196,3.0,13.0,61,0.00,,,0.01,79.56,Custom,2013-05-08 23:06:00,
2013-05-08 18:11:00,72.7,59.0,29.82,South,187,5.0,8.0,62,0.00,,,0.01,106.08,Custom,2013-05-08 23:11:00,
2013-05-08 18:16:00,73.0,59.0,29.82,SSW,197,0.0,5.0,62,0.00,,,0.01,187.2,Custom,2013-05-08 23:16:00,
2013-05-08 18:21:00,73.1,59.0,29.81,South,182,0.0,6.0,61,0.00,,,0.01,176.28,Custom,2013-05-08 23:21:00,
2013-05-08 18:26:00,73.2,59.0,29.81,SSE,161,0.0,4.0,61,0.00,,,0.01,144.69,Custom,2013-05-08 23:26:00,
2013-05-08 18:31:00,72.5,58.0,29.81,South,189,0.0,5.0,60,0.00,,,0.01,101.01,Custom,2013-05-08 23:31:00,
2013-05-08 18:36:00,72.0,58.0,29.81,South,184,4.0,5.0,61,0.00,,,0.01,46.02,Custom,2013-05-08 23:36:00,
2013-05-08 18:41:00,71.2,58.0,29.81,South,190,3.0,4.0,64,0.00,,,0.01,64.35,Custom,2013-05-08 23:41:00,
2013-05-08 18:46:00,71.0,58.0,29.82,SSW,192,4.0,6.0,65,0.00,,,0.01,45.24,Custom,2013-05-08 23:46:00,
2013-05-08 18:51:00,70.7,58.0,29.81,SSE,151,0.0,5.0,65,0.00,,,0.01,52.26,Custom,2013-05-08 23:51:00,
2013-05-08 18:56:00,70.7,59.0,29.81,South,181,0.0,3.0,67,0.00,,,0.01,78,Custom,2013-05-08 23:56:00,
2013-05-08 19:01:00,71.1,59.0,29.81,ESE,112,0.0,3.0,65,0.00,,,0.01,70.59,Custom,2013-05-09 00:01:00,
2013-05-08 19:06:00,70.7,59.0,29.81,South,179,0.0,4.0,66,0.00,,,0.01,53.43,Custom,2013-05-09 00:06:00,
2013-05-08 19:11:00,70.6,59.0,29.81,South,179,0.0,0.0,66,0.00,,,0.01,49.92,Custom,2013-05-09 00:11:00,
2013-05-08 19:16:00,70.1,59.0,29.81,South,179,0.0,0.0,67,0.00,,,0.01,28.47,Custom,2013-05-09 00:16:00,
2013-05-08 19:21:00,69.8,58.0,29.81,South,181,0.0,2.0,67,0.00,,,0.01,30.03,Custom,2013-05-09 00:21:00,
2013-05-08 19:26:00,69.6,58.0,29.81,ESE,108,0.0,2.0,68,0.00,,,0.01,30.03,Custom,2013-05-09 00:26:00,
2013-05-08 19:31:00,69.5,58.0,29.81,ESE,110,0.0,2.0,68,0.00,,,0.01,28.08,Custom,2013-05-09 00:31:00,
2013-05-08 19:36:00,69.3,58.0,29.81,ESE,110,3.0,3.0,68,0.00,,,0.01,25.35,Custom,2013-05-09 00:36:00,
2013-05-08 19:41:00,69.0,58.0,29.81,SSE,149,0.0,2.0,69,0.00,,,0.01,22.23,Custom,2013-05-09 00:41:00,
2013-05-08 19:46:00,68.7,58.0,29.80,SSE,149,0.0,1.0,69,0.00,,,0.01,16.38,Custom,2013-05-09 00:46:00,
2013-05-08 19:51:00,68.6,58.0,29.80,SSE,147,0.0,2.0,69,0.00,,,0.01,10.92,Custom,2013-05-09 00:51:00,
2013-05-08 19:56:00,68.3,58.0,29.80,SSE,147,0.0,1.0,69,0.00,,,0.01,7.8,Custom,2013-05-09 00:56:00,
2013-05-08 20:01:00,68.2,58.0,29.80,SSE,147,0.0,2.0,69,0.00,,,0.01,0,Custom,2013-05-09 01:01:00,
2013-05-08 20:06:00,68.3,58.0,29.80,SSE,147,0.0,0.0,70,0.00,,,0.01,0,Custom,2013-05-09 01:06:00,
2013-05-08 20:11:00,68.2,58.0,29.80,SSE,147,0.0,0.0,70,0.00,,,0.01,0,Custom,2013-05-09 01:11:00,
2013-05-08 20:16:00,68.3,58.0,29.80,SSE,147,0.0,1.0,71,0.00,,,0.01,0,Custom,2013-05-09 01:16:00,
2013-05-08 20:21:00,68.1,58.0,29.81,SSE,147,0.0,0.0,71,0.00,,,0.01,0,Custom,2013-05-09 01:21:00,
2013-05-08 20:26:00,68.3,58.0,29.80,ESE,102,0.0,4.0,71,0.00,,,0.01,0,Custom,2013-05-09 01:26:00,
2013-05-08 20:31:00,68.3,58.0,29.80,SSE,148,0.0,6.0,70,0.00,,,0.01,0,Custom,2013-05-09 01:31:00,
2013-05-08 20:36:00,68.3,58.0,29.80,SE,136,0.0,2.0,70,0.00,,,0.01,0,Custom,2013-05-09 01:36:00,
2013-05-08 20:41:00,68.2,58.0,29.80,ESE,115,0.0,3.0,69,0.00,,,0.01,0,Custom,2013-05-09 01:41:00,
2013-05-08 20:46:00,68.1,58.0,29.80,ESE,115,2.0,2.0,70,0.00,,,0.01,0,Custom,2013-05-09 01:46:00,
2013-05-08 20:51:00,68.1,58.0,29.80,ESE,115,0.0,2.0,70,0.00,,,0.01,0,Custom,2013-05-09 01:51:00,
2013-05-08 20:56:00,67.8,58.0,29.81,ESE,116,0.0,2.0,71,0.00,,,0.01,0,Custom,2013-05-09 01:56:00,
2013-05-08 21:01:00,67.8,58.0,29.80,ESE,121,0.0,2.0,71,0.00,,,0.01,0,Custom,2013-05-09 02:01:00,
2013-05-08 21:06:00,67.8,58.0,29.80,ESE,121,0.0,0.0,70,0.00,,,0.01,0,Custom,2013-05-09 02:06:00,
2013-05-08 21:11:00,67.6,58.0,29.80,ESE,121,0.0,0.0,71,0.00,,,0.01,0,Custom,2013-05-09 02:11:00,
2013-05-08 21:16:00,67.5,58.0,29.80,ESE,121,0.0,2.0,71,0.00,,,0.01,0,Custom,2013-05-09 02:16:00,
2013-05-08 21:21:00,67.5,58.0,29.80,ESE,121,0.0,2.0,71,0.00,,,0.01,0,Custom,2013-05-09 02:21:00,
2013-05-08 21:26:00,67.5,58.0,29.81,East,85,0.0,5.0,71,0.00,,,0.01,0,Custom,2013-05-09 02:26:00,
2013-05-08 21:31:00,67.3,57.0,29.81,East,85,0.0,0.0,71,0.00,,,0.01,0,Custom,2013-05-09 02:31:00,
2013-05-08 21:36:00,67.2,57.0,29.81,ESE,121,0.0,4.0,71,0.00,,,0.01,0,Custom,2013-05-09 02:36:00,
2013-05-08 21:41:00,67.1,57.0,29.81,ESE,119,0.0,3.0,71,0.00,,,0.01,0,Custom,2013-05-09 02:41:00,
2013-05-08 21:46:00,66.9,58.0,29.80,ESE,108,0.0,3.0,72,0.00,,,0.01,0,Custom,2013-05-09 02:46:00,
2013-05-08 21:51:00,66.5,58.0,29.80,ESE,108,0.0,2.0,73,0.00,,,0.01,0,Custom,2013-05-09 02:51:00,
2013-05-08 21:56:00,65.9,58.0,29.80,ESE,108,0.0,0.0,75,0.00,,,0.01,0,Custom,2013-05-09 02:56:00,
2013-05-08 22:01:00,65.9,58.0,29.80,ESE,108,0.0,0.0,76,0.00,,,0.01,0,Custom,2013-05-09 03:01:00,
2013-05-08 22:06:00,65.7,58.0,29.80,ESE,104,0.0,3.0,76,0.00,,,0.01,0,Custom,2013-05-09 03:06:00,
2013-05-08 22:11:00,65.7,58.0,29.80,East,95,0.0,2.0,76,0.00,,,0.01,0,Custom,2013-05-09 03:11:00,
2013-05-08 22:16:00,65.9,58.0,29.80,ENE,73,0.0,4.0,75,0.00,,,0.01,0,Custom,2013-05-09 03:16:00,
2013-05-08 22:21:00,65.9,58.0,29.80,ESE,116,0.0,2.0,75,0.00,,,0.01,0,Custom,2013-05-09 03:21:00,
2013-05-08 22:26:00,65.7,58.0,29.80,ESE,110,0.0,3.0,75,0.00,,,0.01,0,Custom,2013-05-09 03:26:00,
2013-05-08 22:31:00,65.6,58.0,29.80,East,101,0.0,4.0,75,0.00,,,0.01,0,Custom,2013-05-09 03:31:00,
2013-05-08 22:36:00,65.7,58.0,29.80,ENE,76,0.0,6.0,76,0.00,,,0.01,0,Custom,2013-05-09 03:36:00,
2013-05-08 22:41:00,65.5,58.0,29.80,ENE,76,0.0,3.0,76,0.00,,,0.01,0,Custom,2013-05-09 03:41:00,
2013-05-08 22:46:00,65.3,58.0,29.81,ENE,76,0.0,1.0,77,0.00,,,0.01,0,Custom,2013-05-09 03:46:00,
2013-05-08 22:51:00,65.1,58.0,29.81,ENE,76,0.0,0.0,77,0.00,,,0.01,0,Custom,2013-05-09 03:51:00,
2013-05-08 22:56:00,64.9,58.0,29.81,ENE,76,0.0,1.0,78,0.00,,,0.01,0,Custom,2013-05-09 03:56:00,
2013-05-08 23:01:00,64.8,58.0,29.82,ENE,76,0.0,0.0,78,0.00,,,0.01,0,Custom,2013-05-09 04:01:00,
2013-05-08 23:02:00,64.8,58.0,29.82,ENE,76,0.0,0.0,78,0.00,,,0.01,0,Custom,2013-05-09 04:02:00,
2013-05-08 23:04:00,64.8,58.0,29.82,ENE,76,0.0,0.0,78,0.00,,,0.01,0,Custom,2013-05-09 04:04:00,
2013-05-08 23:09:00,64.5,58.0,29.81,ENE,76,0.0,1.0,79,0.00,,,0.01,0,Custom,2013-05-09 04:09:00,
2013-05-08 23:11:00,64.4,58.0,29.81,ENE,76,0.0,1.0,79,0.00,,,0.01,0,Custom,2013-05-09 04:11:00,
2013-05-08 23:16:00,64.3,58.0,29.81,ENE,76,0.0,0.0,79,0.00,,,0.01,0,Custom,2013-05-09 04:16:00,
2013-05-08 23:21:00,64.2,58.0,29.81,ENE,76,0.0,0.0,79,0.00,,,0.01,0,Custom,2013-05-09 04:21:00,
2013-05-08 23:26:00,63.9,57.0,29.81,ENE,76,0.0,0.0,80,0.00,,,0.01,0,Custom,2013-05-09 04:26:00,
2013-05-08 23:31:00,63.6,58.0,29.81,ENE,76,0.0,0.0,80,0.00,,,0.01,0,Custom,2013-05-09 04:31:00,
2013-05-08 23:36:00,63.5,58.0,29.81,ENE,76,0.0,0.0,81,0.00,,,0.01,0,Custom,2013-05-09 04:36:00,
2013-05-08 23:41:00,64.0,58.0,29.81,SSE,161,2.0,3.0,81,0.00,,,0.01,0,Custom,2013-05-09 04:41:00,
2013-05-08 23:46:00,64.3,58.0,29.81,SSE,168,0.0,4.0,80,0.00,,,0.01,0,Custom,2013-05-09 04:46:00,
2013-05-08 23:51:00,64.2,58.0,29.81,SSE,168,0.0,0.0,81,0.00,,,0.01,0,Custom,2013-05-09 04:51:00,
2013-05-08 23:56:00,63.9,58.0,29.81,SSE,168,0.0,0.0,81,0.00,,,0.01,0,Custom,2013-05-09 04:56:00,